SB KEPS @ AMSAT $ORB13213.O Orbital Elements 13213.OSCAR
HR AMSAT ORBITAL ELEMENTS FOR OSCAR SATELLITES FROM WA5QGD FORT WORTH,TX August 1, 2013 BID: ORB13213.O TO ALL RADIO AMATEURS BT
Satellite: AO-07 Catalog number: 07530 Epoch time: 13212.49882334 Element set: 741 Inclination: 101.4343 deg RA of node: 200.4016 deg Eccentricity: 0.0011702 Arg of perigee: 199.4734 deg Mean anomaly: 306.4015 deg Mean motion: 12.53597478 rev/day Decay rate: -3.2e-07 rev/day^2 Epoch rev: 77133 Checksum: 269
Satellite: FO-29 Catalog number: 24278 Epoch time: 13213.16815850 Element set: 168 Inclination: 098.5519 deg RA of node: 265.7073 deg Eccentricity: 0.0351104 Arg of perigee: 047.7472 deg Mean anomaly: 346.8165 deg Mean motion: 13.53004254 rev/day Decay rate: -4.7e-07 rev/day^2 Epoch rev: 83739 Checksum: 318
Satellite: SO-33 Catalog number: 25509 Epoch time: 13213.10699000 Element set: 550 Inclination: 031.4330 deg RA of node: 173.2820 deg Eccentricity: 0.0351426 Arg of perigee: 191.2145 deg Mean anomaly: 268.8721 deg Mean motion: 14.29101391 rev/day Decay rate: 1.54e-06 rev/day^2 Epoch rev: 77132 Checksum: 258
Satellite: RS-22 Catalog number: 27939 Epoch time: 13213.41249502 Element set: 637 Inclination: 097.8009 deg RA of node: 038.9003 deg Eccentricity: 0.0014319 Arg of perigee: 047.3524 deg Mean anomaly: 312.8896 deg Mean motion: 14.64522632 rev/day Decay rate: 2.31e-06 rev/day^2 Epoch rev: 52591 Checksum: 296
Satellite: VO-52 Catalog number: 28650 Epoch time: 13212.50179169 Element set: 488 Inclination: 097.5678 deg RA of node: 228.8317 deg Eccentricity: 0.0027327 Arg of perigee: 133.1990 deg Mean anomaly: 348.4642 deg Mean motion: 14.84013904 rev/day Decay rate: 8.52e-06 rev/day^2 Epoch rev: 44565 Checksum: 329
Satellite: HO-68 Catalog number: 36122 Epoch time: 13213.19801305 Element set: 774 Inclination: 100.3015 deg RA of node: 269.1055 deg Eccentricity: 0.0007155 Arg of perigee: 248.9905 deg Mean anomaly: 111.0439 deg Mean motion: 13.16305920 rev/day Decay rate: -4.4e-07 rev/day^2 Epoch rev: 17433 Checksum: 263
/EX SB KEPS @ AMSAT $ORB13213.D Orbital Elements 13213.MICROS
HR AMSAT ORBITAL ELEMENTS FOR THE MICROSATS FROM WA5QGD FORT WORTH,TX August 1, 2013 BID: ORB13213.D TO ALL RADIO AMATEURS BT
Satellite: UO-11 Catalog number: 14781 Epoch time: 13212.22824486 Element set: 244 Inclination: 097.8998 deg RA of node: 272.9033 deg Eccentricity: 0.0010115 Arg of perigee: 140.6758 deg Mean anomaly: 219.5191 deg Mean motion: 14.80960752 rev/day Decay rate: 3.26e-06 rev/day^2 Epoch rev: 58045 Checksum: 306
Satellite: AO-16 Catalog number: 20439 Epoch time: 13212.86026392 Element set: 806 Inclination: 098.4722 deg RA of node: 151.8545 deg Eccentricity: 0.0011349 Arg of perigee: 033.2511 deg Mean anomaly: 000.1199 deg Mean motion: 14.32192638 rev/day Decay rate: 6.9e-07 rev/day^2 Epoch rev: 22863 Checksum: 284
Satellite: LO-19 Catalog number: 20442 Epoch time: 13213.46758906 Element set: 741 Inclination: 098.4419 deg RA of node: 154.0890 deg Eccentricity: 0.0012044 Arg of perigee: 021.2650 deg Mean anomaly: 097.8951 deg Mean motion: 14.32402603 rev/day Decay rate: 4.5e-07 rev/day^2 Epoch rev: 22891 Checksum: 284
Satellite: AO-27 Catalog number: 22825 Epoch time: 13212.93112007 Element set: 444 Inclination: 098.6202 deg RA of node: 156.4882 deg Eccentricity: 0.0009144 Arg of perigee: 151.0561 deg Mean anomaly: 281.0008 deg Mean motion: 14.29579007 rev/day Decay rate: 4.5e-07 rev/day^2 Epoch rev: 3502 Checksum: 263
Satellite: IO-26 Catalog number: 22826 Epoch time: 13213.42654450 Element set: 200 Inclination: 098.6144 deg RA of node: 157.2561 deg Eccentricity: 0.0009825 Arg of perigee: 143.7707 deg Mean anomaly: 004.4568 deg Mean motion: 14.29864914 rev/day Decay rate: 4.8e-07 rev/day^2 Epoch rev: 3522 Checksum: 292
Satellite: GO-32 Catalog number: 25397 Epoch time: 13213.58998162 Element set: 127 Inclination: 098.4180 deg RA of node: 179.3784 deg Eccentricity: 0.0001750 Arg of perigee: 130.0362 deg Mean anomaly: 230.1455 deg Mean motion: 14.23352079 rev/day Decay rate: 1.04e-06 rev/day^2 Epoch rev: 78240 Checksum: 288
Satellite: NO-44 Catalog number: 26931 Epoch time: 13212.79969755 Element set: 384 Inclination: 067.0526 deg RA of node: 144.5034 deg Eccentricity: 0.0007889 Arg of perigee: 274.1631 deg Mean anomaly: 130.7008 deg Mean motion: 14.29945270 rev/day Decay rate: -5.0e-08 rev/day^2 Epoch rev: 61780 Checksum: 315
Satellite: SO-50 Catalog number: 27607 Epoch time: 13213.14517204 Element set: 129 Inclination: 064.5574 deg RA of node: 127.2654 deg Eccentricity: 0.0039918 Arg of perigee: 148.5526 deg Mean anomaly: 358.2983 deg Mean motion: 14.73013225 rev/day Decay rate: 3.59e-06 rev/day^2 Epoch rev: 57033 Checksum: 303
Satellite: CO-55 Catalog number: 27844 Epoch time: 13213.04966169 Element set: 706 Inclination: 098.7014 deg RA of node: 221.4706 deg Eccentricity: 0.0010941 Arg of perigee: 117.9167 deg Mean anomaly: 313.3198 deg Mean motion: 14.21248122 rev/day Decay rate: 1.53e-06 rev/day^2 Epoch rev: 52310 Checksum: 282
Satellite: CO-57 Catalog number: 27848 Epoch time: 13213.05141897 Element set: 651 Inclination: 098.7100 deg RA of node: 221.0084 deg Eccentricity: 0.0010797 Arg of perigee: 123.4500 deg Mean anomaly: 270.0674 deg Mean motion: 14.20970379 rev/day Decay rate: 1.32e-06 rev/day^2 Epoch rev: 52303 Checksum: 276
Satellite: AO-51 Catalog number: 28375 Epoch time: 13212.81871924 Element set: 618 Inclination: 098.2047 deg RA of node: 166.4965 deg Eccentricity: 0.0082407 Arg of perigee: 240.5104 deg Mean anomaly: 151.5716 deg Mean motion: 14.41144145 rev/day Decay rate: 5.9e-07 rev/day^2 Epoch rev: 47776 Checksum: 310
Satellite: CP3 Catalog number: 31129 Epoch time: 13212.59408183 Element set: 517 Inclination: 097.9003 deg RA of node: 202.7329 deg Eccentricity: 0.0098564 Arg of perigee: 289.3547 deg Mean anomaly: 189.0799 deg Mean motion: 14.53750041 rev/day Decay rate: 3.94e-06 rev/day^2 Epoch rev: 33344 Checksum: 317
Satellite: CO-65 Catalog number: 32785 Epoch time: 13212.75428093 Element set: 698 Inclination: 097.7482 deg RA of node: 269.0125 deg Eccentricity: 0.0015309 Arg of perigee: 156.8686 deg Mean anomaly: 321.5448 deg Mean motion: 14.84006119 rev/day Decay rate: 7.84e-06 rev/day^2 Epoch rev: 28448 Checksum: 342
Satellite: PRISM Catalog number: 33493 Epoch time: 13213.45981884 Element set: 37 Inclination: 098.2226 deg RA of node: 011.9032 deg Eccentricity: 0.0019077 Arg of perigee: 048.9200 deg Mean anomaly: 311.3675 deg Mean motion: 14.86254158 rev/day Decay rate: 1.801e-05 rev/day^2 Epoch rev: 24464 Checksum: 289
Satellite: SOHLA-1 Catalog number: 33496 Epoch time: 13212.50263824 Element set: 109 Inclination: 098.1396 deg RA of node: 328.4153 deg Eccentricity: 0.0007085 Arg of perigee: 170.7278 deg Mean anomaly: 250.6955 deg Mean motion: 14.70334918 rev/day Decay rate: 2.26e-06 rev/day^2 Epoch rev: 24238 Checksum: 300
Satellite: SO-67 Catalog number: 35870 Epoch time: 13213.37552007 Element set: 290 Inclination: 097.1892 deg RA of node: 240.5168 deg Eccentricity: 0.0002992 Arg of perigee: 122.9429 deg Mean anomaly: 332.5407 deg Mean motion: 15.27587288 rev/day Decay rate: 3.700e-05 rev/day^2 Epoch rev: 21515 Checksum: 309
Satellite: TISAT-1 Catalog number: 36799 Epoch time: 13213.31113097 Element set: 310 Inclination: 098.0329 deg RA of node: 298.2718 deg Eccentricity: 0.0012954 Arg of perigee: 283.0131 deg Mean anomaly: 076.9635 deg Mean motion: 14.83499320 rev/day Decay rate: 1.245e-05 rev/day^2 Epoch rev: 16526 Checksum: 301
Satellite: STUDSAT Catalog number: 36801 Epoch time: 13212.76146160 Element set: 660 Inclination: 098.0456 deg RA of node: 301.2848 deg Eccentricity: 0.0010107 Arg of perigee: 258.3898 deg Mean anomaly: 247.9340 deg Mean motion: 14.88926265 rev/day Decay rate: 3.922e-05 rev/day^2 Epoch rev: 16534 Checksum: 303
Satellite: ALMASAT-1 Catalog number: 38078 Epoch time: 13213.16237697 Element set: 487 Inclination: 069.4708 deg RA of node: 096.4807 deg Eccentricity: 0.0684705 Arg of perigee: 089.3967 deg Mean anomaly: 278.5511 deg Mean motion: 14.26875653 rev/day Decay rate: 2.1725e-04 rev/day^2 Epoch rev: 7565 Checksum: 361
Satellite: XATCOBEO Catalog number: 38082 Epoch time: 13213.09584249 Element set: 370 Inclination: 069.4691 deg RA of node: 066.4975 deg Eccentricity: 0.0548749 Arg of perigee: 072.9022 deg Mean anomaly: 293.1421 deg Mean motion: 14.61872959 rev/day Decay rate: 6.8267e-04 rev/day^2 Epoch rev: 7647 Checksum: 347
Satellite: SOMP Catalog number: 39135 Epoch time: 13213.03294810 Element set: 219 Inclination: 064.8776 deg RA of node: 067.7262 deg Eccentricity: 0.0008458 Arg of perigee: 203.6434 deg Mean anomaly: 317.3350 deg Mean motion: 15.00555027 rev/day Decay rate: 2.243e-05 rev/day^2 Epoch rev: 1555 Checksum: 272
Satellite: CUBEBUG-1 Catalog number: 39153 Epoch time: 13213.33771332 Element set: 272 Inclination: 098.0711 deg RA of node: 289.0830 deg Eccentricity: 0.0016912 Arg of perigee: 301.2460 deg Mean anomaly: 058.7094 deg Mean motion: 14.76527433 rev/day Decay rate: 6.49e-06 rev/day^2 Epoch rev: 1434 Checksum: 279
Satellite: ESTCUBE-1 Catalog number: 39161 Epoch time: 13213.25546763 Element set: 238 Inclination: 098.1269 deg RA of node: 291.2735 deg Eccentricity: 0.0009880 Arg of perigee: 337.9544 deg Mean anomaly: 022.1234 deg Mean motion: 14.69041967 rev/day Decay rate: 5.67e-06 rev/day^2 Epoch rev: 1261 Checksum: 305
/EX SB KEPS @ AMSAT $ORB13213.W Orbital Elements 13213.WEATHER
HR AMSAT ORBITAL ELEMENTS FOR WEATHER SATELLITES FROM WA5QGD FORT WORTH,TX August 1, 2013 BID: ORB13213.W TO ALL RADIO AMATEURS BT
Satellite: NOAA-10 Catalog number: 16969 Epoch time: 13213.17902965 Element set: 445 Inclination: 098.5437 deg RA of node: 240.0334 deg Eccentricity: 0.0013489 Arg of perigee: 113.4898 deg Mean anomaly: 288.1338 deg Mean motion: 14.27654797 rev/day Decay rate: 5.6e-07 rev/day^2 Epoch rev: 39836 Checksum: 341
